Location: Namasale
(1.5000°N, 32.6167°E)
Time: 10:00:43
(UTC+00:00)

Courier 1B - Pass Details

Date: 25 April 2021
Orbit: 962 x 1209 km, 28.3° (Epoch: 15 May)

Event Time Altitude Azimuth Distance (km) Brightness Sun altitude
Rises 01:29:52 0° 212° (SSW) 4,101 - -33.0°
Reaches altitude 10° 01:34:13 10° 191° (S) 3,145 - -31.9°
Exits shadow 01:36:33 14° 174° (S) 2,831 9.8 -31.4°
Maximum altitude 01:38:34 16° 157° (SSE) 2,734 9.9 -30.9°
Drops below altitude 10° 01:42:53 10° 123° (ESE) 3,119 10.6 -29.8°
Sets 01:47:08 0° 102° (ESE) 4,051 11.6 -28.8°
